Time,TemperatureF,DewpointF,PressureIn,WindDirection,WindDirectionDegrees,WindSpeedMPH,WindSpeedGustMPH,Humidity,HourlyPrecipIn,Conditions,Clouds,dailyrainin,SoftwareType,DateUTC
2013-03-16 00:02:00,34.0,33.0,29.78,East,84,3.0,8.0,95,0.00,,,0.00,,2013-03-16 05:02:00,
2013-03-16 00:12:00,34.0,33.0,29.78,East,84,3.0,8.0,95,0.00,,,0.00,,2013-03-16 05:12:00,
2013-03-16 00:21:00,34.0,33.0,29.77,East,84,4.0,7.0,95,0.00,,,0.00,,2013-03-16 05:21:00,
2013-03-16 00:32:00,34.0,33.0,29.76,East,84,3.0,7.0,95,0.00,,,0.00,,2013-03-16 05:32:00,
2013-03-16 00:42:00,34.0,33.0,29.76,East,84,3.0,7.0,95,0.00,,,0.00,,2013-03-16 05:42:00,
2013-03-16 00:53:00,34.0,33.0,29.78,East,84,2.0,10.0,95,0.00,,,0.00,,2013-03-16 05:53:00,
2013-03-16 01:02:00,34.0,33.0,29.79,East,83,2.0,8.0,95,0.00,,,0.00,,2013-03-16 06:02:00,
2013-03-16 01:12:00,34.0,33.0,29.79,East,83,2.0,8.0,95,0.00,,,0.00,,2013-03-16 06:12:00,
2013-03-16 01:22:00,34.0,33.0,29.80,East,82,4.0,9.0,95,0.00,,,0.00,,2013-03-16 06:22:00,
2013-03-16 01:32:00,34.0,33.0,29.80,East,79,3.0,7.0,95,0.00,,,0.00,,2013-03-16 06:32:00,
2013-03-16 01:42:00,34.0,33.0,29.80,East,79,3.0,7.0,95,0.00,,,0.00,,2013-03-16 06:42:00,
2013-03-16 01:52:00,34.0,33.0,29.80,East,79,0.0,4.0,95,0.00,,,0.00,,2013-03-16 06:52:00,
2013-03-16 02:02:00,34.0,33.0,29.80,East,79,0.0,4.0,95,0.00,,,0.00,,2013-03-16 07:02:00,
2013-03-16 02:12:00,34.0,33.0,29.80,East,79,0.0,4.0,95,0.00,,,0.00,,2013-03-16 07:12:00,
2013-03-16 02:22:00,34.0,33.0,29.80,ENE,76,2.0,9.0,95,0.00,,,0.00,,2013-03-16 07:22:00,
2013-03-16 02:32:00,34.0,33.0,29.80,ENE,76,3.0,7.0,95,0.00,,,0.00,,2013-03-16 07:32:00,
2013-03-16 02:42:00,34.0,33.0,29.80,ENE,76,3.0,7.0,95,0.00,,,0.00,,2013-03-16 07:42:00,
2013-03-16 02:52:00,34.0,33.0,29.81,ENE,76,4.0,8.0,95,0.00,,,0.00,,2013-03-16 07:52:00,
2013-03-16 03:02:00,34.0,33.0,29.81,ENE,76,4.0,8.0,95,0.00,,,0.00,,2013-03-16 08:02:00,
2013-03-16 03:12:00,34.0,33.0,29.81,ENE,76,4.0,8.0,95,0.00,,,0.00,,2013-03-16 08:12:00,
2013-03-16 03:23:00,34.0,33.0,29.82,ENE,58,3.0,10.0,95,0.00,,,0.00,,2013-03-16 08:23:00,
2013-03-16 03:32:00,34.0,33.0,29.82,NE,55,4.0,10.0,95,0.00,,,0.00,,2013-03-16 08:32:00,
2013-03-16 03:42:00,34.0,33.0,29.82,NE,55,4.0,10.0,95,0.00,,,0.00,,2013-03-16 08:42:00,
2013-03-16 03:52:00,34.0,33.0,29.82,NE,37,6.0,12.0,95,0.00,,,0.00,,2013-03-16 08:52:00,
2013-03-16 04:01:00,34.0,33.0,29.84,NNE,30,3.0,13.0,95,0.00,,,0.00,,2013-03-16 09:01:00,
2013-03-16 04:12:00,34.0,33.0,29.84,NNE,30,3.0,13.0,95,0.00,,,0.00,,2013-03-16 09:12:00,
2013-03-16 04:22:00,34.0,33.0,29.83,NNE,28,5.0,10.0,95,0.00,,,0.00,,2013-03-16 09:22:00,
2013-03-16 04:33:00,34.0,33.0,29.85,NNE,23,6.0,10.0,95,0.00,,,0.00,,2013-03-16 09:33:00,
2013-03-16 04:42:00,34.0,33.0,29.85,NNE,23,6.0,10.0,95,0.00,,,0.00,,2013-03-16 09:42:00,
2013-03-16 04:53:00,34.0,33.0,29.86,NNE,16,5.0,15.0,95,0.00,,,0.00,,2013-03-16 09:53:00,
2013-03-16 05:03:00,34.0,33.0,29.86,NNE,14,4.0,11.0,95,0.00,,,0.00,,2013-03-16 10:03:00,
2013-03-16 05:12:00,34.0,33.0,29.86,NNE,14,4.0,11.0,95,0.00,,,0.00,,2013-03-16 10:12:00,
2013-03-16 05:22:00,34.0,33.0,29.87,North,10,4.0,11.0,95,0.00,,,0.00,,2013-03-16 10:22:00,
2013-03-16 05:32:00,34.0,33.0,29.87,North,4,2.0,14.0,95,0.00,,,0.00,,2013-03-16 10:32:00,
2013-03-16 05:42:00,34.0,33.0,29.87,North,4,2.0,14.0,95,0.00,,,0.00,,2013-03-16 10:42:00,
2013-03-16 05:53:00,34.0,33.0,29.88,NNE,14,4.0,18.0,95,0.00,,,0.00,,2013-03-16 10:53:00,
2013-03-16 06:03:00,34.0,32.0,29.90,NNE,25,4.0,14.0,94,0.00,,,0.00,,2013-03-16 11:03:00,
2013-03-16 06:12:00,34.0,32.0,29.90,NNE,25,4.0,14.0,94,0.00,,,0.00,,2013-03-16 11:12:00,
2013-03-16 06:22:00,34.0,32.0,29.91,North,10,6.0,16.0,94,0.00,,,0.00,,2013-03-16 11:22:00,
2013-03-16 06:32:00,33.0,31.0,29.92,North,7,8.0,14.0,93,0.00,,,0.00,,2013-03-16 11:32:00,
2013-03-16 06:42:00,33.0,31.0,29.92,North,7,8.0,14.0,93,0.00,,,0.00,,2013-03-16 11:42:00,
2013-03-16 06:52:00,33.0,31.0,29.93,NNE,25,3.0,7.0,93,0.00,,,0.00,,2013-03-16 11:52:00,
2013-03-16 07:02:00,33.0,31.0,29.93,North,4,4.0,11.0,92,0.00,,,0.00,,2013-03-16 12:02:00,
2013-03-16 07:12:00,33.0,31.0,29.93,North,4,4.0,11.0,92,0.00,,,0.00,,2013-03-16 12:12:00,
2013-03-16 07:22:00,33.0,31.0,29.94,NNE,29,7.0,18.0,91,0.00,,,0.00,,2013-03-16 12:22:00,
2013-03-16 07:32:00,33.0,30.0,29.96,North,354,5.0,13.0,90,0.00,,,0.00,,2013-03-16 12:32:00,
2013-03-16 07:42:00,33.0,30.0,29.96,North,354,5.0,13.0,90,0.00,,,0.00,,2013-03-16 12:42:00,
2013-03-16 07:52:00,33.0,30.0,29.97,North,9,5.0,20.0,90,0.00,,,0.00,,2013-03-16 12:52:00,
2013-03-16 08:02:00,33.0,30.0,29.97,NNE,12,7.0,20.0,89,0.00,,,0.00,,2013-03-16 13:02:00,
2013-03-16 08:12:00,33.0,30.0,29.97,NNE,12,7.0,20.0,89,0.00,,,0.00,,2013-03-16 13:12:00,
2013-03-16 08:22:00,32.0,29.0,29.98,NE,38,10.0,23.0,88,0.00,,,0.00,,2013-03-16 13:22:00,
2013-03-16 08:32:00,32.0,29.0,29.98,NE,38,10.0,23.0,88,0.00,,,0.00,,2013-03-16 13:32:00,
2013-03-16 08:42:00,32.0,29.0,29.98,NE,38,10.0,23.0,88,0.00,,,0.00,,2013-03-16 13:42:00,
2013-03-16 08:53:00,32.0,28.0,29.99,NE,41,13.0,26.0,86,0.00,,,0.00,,2013-03-16 13:53:00,
2013-03-16 09:02:00,31.0,28.0,30.01,NE,41,12.0,24.0,87,0.00,,,0.00,,2013-03-16 14:02:00,
2013-03-16 09:12:00,31.0,28.0,30.01,NE,41,12.0,24.0,87,0.00,,,0.00,,2013-03-16 14:12:00,
2013-03-16 09:22:00,31.0,28.0,30.01,NE,40,14.0,26.0,87,0.00,,,0.00,,2013-03-16 14:22:00,
2013-03-16 09:32:00,30.0,27.0,30.02,NNE,30,12.0,25.0,87,0.00,,,0.00,,2013-03-16 14:32:00,
2013-03-16 09:42:00,30.0,27.0,30.02,NNE,30,12.0,25.0,87,0.00,,,0.00,,2013-03-16 14:42:00,
2013-03-16 09:52:00,30.0,26.0,30.02,NE,35,13.0,25.0,84,0.00,,,0.00,,2013-03-16 14:52:00,
2013-03-16 10:02:00,30.0,26.0,30.03,NE,35,11.0,22.0,84,0.00,,,0.00,,2013-03-16 15:02:00,
2013-03-16 10:12:00,30.0,26.0,30.03,NE,35,11.0,22.0,84,0.00,,,0.00,,2013-03-16 15:12:00,
2013-03-16 10:22:00,29.0,25.0,30.02,NNE,33,12.0,27.0,84,0.00,,,0.00,,2013-03-16 15:22:00,
2013-03-16 10:33:00,30.0,25.0,30.03,NE,35,10.0,21.0,83,0.00,,,0.00,,2013-03-16 15:33:00,
2013-03-16 10:43:00,30.0,25.0,30.03,NE,35,10.0,21.0,83,0.00,,,0.00,,2013-03-16 15:43:00,
2013-03-16 10:53:00,29.0,25.0,30.05,NNE,26,8.0,22.0,84,0.00,,,0.00,,2013-03-16 15:53:00,
2013-03-16 11:03:00,29.0,25.0,30.04,NNE,30,7.0,18.0,85,0.00,,,0.00,,2013-03-16 16:03:00,
2013-03-16 11:12:00,29.0,25.0,30.04,NNE,30,7.0,18.0,85,0.00,,,0.00,,2013-03-16 16:12:00,
2013-03-16 11:22:00,29.0,25.0,30.06,NNE,31,9.0,18.0,85,0.00,,,0.00,,2013-03-16 16:22:00,
2013-03-16 11:33:00,29.0,25.0,30.06,NE,40,12.0,22.0,84,0.00,,,0.00,,2013-03-16 16:33:00,
2013-03-16 11:43:00,29.0,25.0,30.06,NE,40,12.0,22.0,84,0.00,,,0.00,,2013-03-16 16:43:00,
2013-03-16 11:53:00,29.0,24.0,30.06,NE,47,15.0,25.0,81,0.00,,,0.00,,2013-03-16 16:53:00,
2013-03-16 12:03:00,30.0,25.0,30.06,NE,37,10.0,24.0,81,0.00,,,0.00,,2013-03-16 17:03:00,
2013-03-16 12:12:00,30.0,25.0,30.06,NE,37,10.0,24.0,81,0.00,,,0.00,,2013-03-16 17:12:00,
2013-03-16 12:22:00,30.0,25.0,30.06,NNE,31,10.0,18.0,82,0.00,,,0.00,,2013-03-16 17:22:00,
2013-03-16 12:32:00,30.0,25.0,30.06,NNE,31,10.0,18.0,82,0.00,,,0.00,,2013-03-16 17:32:00,
2013-03-16 12:42:00,30.0,25.0,30.06,NNE,31,10.0,18.0,82,0.00,,,0.00,,2013-03-16 17:42:00,
2013-03-16 12:52:00,30.0,25.0,30.07,NNE,24,9.0,20.0,81,0.00,,,0.00,,2013-03-16 17:52:00,
2013-03-16 13:02:00,31.0,26.0,30.08,NNE,28,10.0,19.0,81,-99.99,,,-99.99,,2013-03-16 18:02:00,
2013-03-16 13:13:00,31.0,26.0,30.08,NNE,28,10.0,19.0,81,-99.99,,,-99.99,,2013-03-16 18:13:00,
2013-03-16 13:22:00,31.0,26.0,30.08,NE,43,13.0,22.0,81,-99.99,,,-99.99,,2013-03-16 18:22:00,
2013-03-16 13:32:00,31.0,26.0,30.08,NE,34,9.0,24.0,80,-99.99,,,-99.99,,2013-03-16 18:32:00,
2013-03-16 13:42:00,31.0,26.0,30.08,NE,34,9.0,24.0,80,-99.99,,,-99.99,,2013-03-16 18:42:00,
2013-03-16 13:52:00,31.0,26.0,30.07,NE,37,10.0,22.0,81,-99.99,,,-99.99,,2013-03-16 18:52:00,
2013-03-16 14:02:00,31.0,26.0,30.08,NE,34,9.0,19.0,80,0.00,,,-99.99,,2013-03-16 19:02:00,
2013-03-16 14:12:00,31.0,26.0,30.08,NE,34,9.0,19.0,80,0.00,,,-99.99,,2013-03-16 19:12:00,
2013-03-16 14:22:00,31.0,26.0,30.07,NE,41,9.0,20.0,82,0.00,,,-99.99,,2013-03-16 19:22:00,
2013-03-16 14:32:00,31.0,26.0,30.07,NNE,31,8.0,18.0,80,0.00,,,-99.99,,2013-03-16 19:32:00,
2013-03-16 14:42:00,31.0,26.0,30.07,NNE,31,8.0,18.0,80,0.00,,,-99.99,,2013-03-16 19:42:00,
2013-03-16 14:53:00,31.0,25.0,30.08,NNE,26,7.0,19.0,78,0.00,,,-99.99,,2013-03-16 19:53:00,
2013-03-16 15:02:00,31.0,26.0,30.07,NE,40,5.0,15.0,80,0.00,,,-99.99,,2013-03-16 20:02:00,
2013-03-16 15:12:00,31.0,26.0,30.07,NE,40,5.0,15.0,80,0.00,,,-99.99,,2013-03-16 20:12:00,
2013-03-16 15:22:00,30.0,24.0,30.06,NE,38,11.0,19.0,78,0.00,,,-99.99,,2013-03-16 20:22:00,
2013-03-16 15:32:00,31.0,25.0,30.06,NE,40,9.0,14.0,79,0.00,,,-99.99,,2013-03-16 20:32:00,
2013-03-16 15:42:00,31.0,25.0,30.06,NE,40,9.0,14.0,79,0.00,,,-99.99,,2013-03-16 20:42:00,
2013-03-16 15:52:00,30.0,25.0,30.05,NE,34,8.0,16.0,80,0.00,,,-99.99,,2013-03-16 20:52:00,
2013-03-16 16:02:00,30.0,25.0,30.06,NE,45,8.0,16.0,80,0.00,,,-99.99,,2013-03-16 21:02:00,
2013-03-16 16:12:00,30.0,25.0,30.06,NE,45,8.0,16.0,80,0.00,,,-99.99,,2013-03-16 21:12:00,
2013-03-16 16:22:00,30.0,25.0,30.06,NE,53,10.0,16.0,81,0.00,,,-99.99,,2013-03-16 21:22:00,
2013-03-16 16:32:00,30.0,25.0,30.07,NNE,29,8.0,16.0,80,0.00,,,-99.99,,2013-03-16 21:32:00,
2013-03-16 16:43:00,30.0,25.0,30.07,NNE,29,8.0,16.0,80,0.00,,,-99.99,,2013-03-16 21:43:00,
2013-03-16 16:52:00,30.0,25.0,30.06,NE,50,13.0,18.0,81,0.00,,,-99.99,,2013-03-16 21:52:00,
2013-03-16 17:03:00,30.0,25.0,30.07,NE,35,5.0,13.0,81,0.00,,,-99.99,,2013-03-16 22:03:00,
2013-03-16 17:12:00,30.0,25.0,30.07,NE,35,5.0,13.0,81,0.00,,,-99.99,,2013-03-16 22:12:00,
2013-03-16 17:22:00,30.0,25.0,30.07,NE,38,7.0,14.0,82,0.00,,,-99.99,,2013-03-16 22:22:00,
2013-03-16 17:33:00,29.0,24.0,30.07,NE,44,8.0,13.0,82,0.00,,,-99.99,,2013-03-16 22:33:00,
2013-03-16 17:42:00,29.0,24.0,30.07,NE,44,8.0,13.0,82,0.00,,,-99.99,,2013-03-16 22:42:00,
2013-03-16 17:52:00,29.0,24.0,30.07,NE,42,10.0,18.0,82,0.00,,,-99.99,,2013-03-16 22:52:00,
2013-03-16 18:02:00,29.0,24.0,30.07,NE,44,8.0,16.0,81,0.00,,,-99.99,,2013-03-16 23:02:00,
2013-03-16 18:12:00,29.0,24.0,30.07,NE,44,8.0,16.0,81,0.00,,,-99.99,,2013-03-16 23:12:00,
2013-03-16 18:22:00,29.0,24.0,30.08,NE,50,10.0,19.0,81,0.00,,,-99.99,,2013-03-16 23:22:00,
2013-03-16 18:32:00,28.0,23.0,30.09,NE,41,5.0,14.0,82,0.00,,,-99.99,,2013-03-16 23:32:00,
2013-03-16 18:42:00,28.0,23.0,30.09,NE,41,5.0,14.0,82,0.00,,,-99.99,,2013-03-16 23:42:00,
2013-03-16 18:52:00,28.0,23.0,30.09,NE,52,7.0,15.0,81,0.00,,,-99.99,,2013-03-16 23:52:00,
2013-03-16 19:01:00,28.0,23.0,30.09,NE,49,10.0,13.0,80,0.00,,,-99.99,,2013-03-17 00:01:00,
2013-03-16 19:12:00,28.0,23.0,30.09,NE,49,10.0,13.0,80,0.00,,,-99.99,,2013-03-17 00:12:00,
2013-03-16 19:22:00,28.0,23.0,30.10,NE,42,9.0,13.0,81,0.00,,,-99.99,,2013-03-17 00:22:00,
2013-03-16 19:32:00,28.0,23.0,30.11,NE,35,5.0,12.0,82,0.00,,,-99.99,,2013-03-17 00:32:00,
2013-03-16 19:42:00,28.0,23.0,30.11,NE,35,5.0,12.0,82,0.00,,,-99.99,,2013-03-17 00:42:00,
2013-03-16 19:52:00,28.0,23.0,30.10,NE,52,4.0,11.0,82,0.00,,,-99.99,,2013-03-17 00:52:00,
2013-03-16 20:02:00,28.0,23.0,30.11,NE,46,5.0,11.0,82,0.00,,,-99.99,,2013-03-17 01:02:00,
2013-03-16 20:12:00,28.0,23.0,30.11,NE,46,5.0,11.0,82,0.00,,,-99.99,,2013-03-17 01:12:00,
2013-03-16 20:22:00,27.0,22.0,30.11,NE,40,7.0,11.0,81,0.00,,,-99.99,,2013-03-17 01:22:00,
2013-03-16 20:32:00,28.0,23.0,30.11,NE,51,3.0,10.0,82,0.00,,,-99.99,,2013-03-17 01:32:00,
2013-03-16 20:42:00,28.0,23.0,30.11,NE,51,3.0,10.0,82,0.00,,,-99.99,,2013-03-17 01:42:00,
2013-03-16 20:53:00,27.0,22.0,30.11,NE,47,10.0,13.0,81,0.00,,,-99.99,,2013-03-17 01:53:00,
2013-03-16 21:02:00,27.0,22.0,30.12,NE,50,9.0,14.0,82,0.00,,,-99.99,,2013-03-17 02:02:00,
2013-03-16 21:12:00,27.0,22.0,30.12,NE,50,9.0,14.0,82,0.00,,,-99.99,,2013-03-17 02:12:00,
2013-03-16 21:22:00,27.0,22.0,30.13,NE,44,9.0,13.0,82,0.00,,,-99.99,,2013-03-17 02:22:00,
2013-03-16 21:33:00,27.0,22.0,30.13,NE,41,9.0,18.0,82,0.00,,,-99.99,,2013-03-17 02:33:00,
2013-03-16 21:42:00,27.0,22.0,30.13,NE,41,9.0,18.0,82,0.00,,,-99.99,,2013-03-17 02:42:00,
2013-03-16 21:52:00,27.0,23.0,30.14,NE,36,6.0,11.0,83,0.00,,,-99.99,,2013-03-17 02:52:00,
2013-03-16 22:02:00,27.0,22.0,30.15,NE,46,9.0,13.0,82,0.00,,,-99.99,,2013-03-17 03:02:00,
2013-03-16 22:12:00,27.0,22.0,30.15,NE,46,9.0,13.0,82,0.00,,,-99.99,,2013-03-17 03:12:00,
2013-03-16 22:22:00,27.0,22.0,30.16,NE,36,5.0,11.0,82,0.00,,,-99.99,,2013-03-17 03:22:00,
2013-03-16 22:33:00,27.0,22.0,30.16,NE,39,7.0,13.0,81,0.00,,,-99.99,,2013-03-17 03:33:00,
2013-03-16 22:43:00,27.0,22.0,30.16,NE,39,7.0,13.0,81,0.00,,,-99.99,,2013-03-17 03:43:00,
2013-03-16 22:52:00,27.0,22.0,30.17,NE,44,5.0,12.0,81,0.00,,,-99.99,,2013-03-17 03:52:00,
2013-03-16 23:03:00,27.0,22.0,30.17,NE,44,5.0,12.0,81,0.00,,,-99.99,,2013-03-17 04:03:00,
2013-03-16 23:12:00,27.0,22.0,30.17,NE,44,5.0,12.0,81,0.00,,,-99.99,,2013-03-17 04:12:00,
2013-03-16 23:23:00,27.0,22.0,30.17,NE,34,2.0,15.0,82,0.00,,,-99.99,,2013-03-17 04:23:00,
2013-03-16 23:32:00,26.0,21.0,30.17,NE,40,7.0,13.0,82,0.00,,,-99.99,,2013-03-17 04:32:00,
2013-03-16 23:43:00,26.0,21.0,30.17,NE,40,7.0,13.0,82,0.00,,,-99.99,,2013-03-17 04:43:00,
2013-03-16 23:53:00,26.0,21.0,30.18,NE,44,6.0,12.0,82,0.00,,,-99.99,,2013-03-17 04:53:00,